QPF
0.00 0.00 0.00 0.00 0.00 0.00 0.00 0.00 0.00 0.00 0.00 0.00 0.00 0.00 0.00 0.00 0.00 0.00 0.00 0.00 0.00 0.00 0.02 0.05 0.11 0.13 0.18 0.17 0.13 0.07 0.04 0.02 0.02 0.00 0.00 0.00 0.00 0.00 0.00 0.00 0.00 0.00 0.00 0.00
0.00 0.00 0.00 0.00 0.00 0.00 0.00 0.00 0.00 0.00 0.00 0.00 0.00 0.00 0.00 0.00 0.00 0.00 0.00 0.00 0.00 0.00 0.00 0.00 0.02 0.05 0.09 0.11 0.11 0.10 0.07 0.05 0.01 0.00 0.01 0.01 0.00 0.00 0.00 0.00 0.00 0.00 0.00 0.00
0.00 0.00 0.00 0.00 0.00 0.00 0.00 0.00 0.00 0.00 0.00 0.00 0.00 0.00 0.00 0.00 0.00 0.00 0.00 0.00 0.00 0.00 0.00 0.00 0.00 0.00 0.03 0.06 0.05 0.06 0.07 0.02 0.01 0.00 0.00 0.01 0.02 0.01 0.00 0.00 0.00 0.00 0.00 0.00
0.00 0.00 0.00 0.00 0.00 0.00 0.00 0.00 0.00 0.00 0.00 0.00 0.00 0.00 0.00 0.00 0.00 0.00 0.00 0.00 0.00 0.00 0.00 0.00 0.00 0.00 0.00 0.01 0.02 0.02 0.01 0.00 0.00 0.00 0.00 0.01 0.02 0.03 0.01 0.00 0.00 0.00 0.00 0.00
0.00 0.00 0.00 0.00 0.00 0.00 0.00 0.00 0.00 0.00 0.00 0.00 0.00 0.00 0.00 0.00 0.00 0.00 0.00 0.00 0.00 0.00 0.00 0.00 0.00 0.00 0.00 0.00 0.00 0.00 0.01 0.04 0.04 0.01 0.00 0.01 0.01 0.03 0.03 0.02 0.00 0.00 0.00 0.00
0.00 0.00 0.00 0.00 0.00 0.00 0.00 0.00 0.00 0.00 0.00 0.00 0.00 0.00 0.00 0.00 0.00 0.00 0.00 0.00 0.00 0.00 0.00 0.00 0.00 0.00 0.00 0.00 0.00 0.00 0.00 0.01 0.02 0.04 0.02 0.03 0.02 0.01 0.04 0.05 0.02 0.02 0.01 0.00
0.00 0.00 0.00 0.00 0.00 0.00 0.00 0.00 0.00 0.00 0.00 0.00 0.00 0.00 0.00 0.00 0.00 0.00 0.00 0.00 0.00 0.00 0.00 0.00 0.00 0.00 0.00 0.00 0.00 0.00 0.00 0.00 0.00 0.00 0.01 0.01 0.00 0.00 0.02 0.07 0.09 0.06 0.04 0.03
0.00 0.00 0.00 0.00 0.00 0.00 0.00 0.00 0.00 0.00 0.00 0.00 0.00 0.00 0.00 0.00 0.00 0.00 0.00 0.00 0.00 0.00 0.00 0.00 0.00 0.00 0.00 0.00 0.00 0.00 0.00 0.00 0.00 0.00 0.00 0.00 0.00 0.00 0.00 0.03 0.08 0.12 0.12 0.08
0.00 0.00 0.00 0.00 0.00 0.00 0.00 0.00 0.00 0.00 0.00 0.00 0.00 0.00 0.00 0.00 0.00 0.00 0.00 0.00 0.00 0.00 0.00 0.00 0.00 0.00 0.00 0.00 0.00 0.00 0.00 0.00 0.00 0.00 0.00 0.00 0.00 0.00 0.00 0.00 0.02 0.08 0.12 0.10
0.00 0.00 0.00 0.00 0.00 0.00 0.00 0.00 0.00 0.00 0.00 0.00 0.00 0.00 0.00 0.00 0.00 0.00 0.00 0.00 0.00 0.00 0.00 0.00 0.00 0.00 0.00 0.00 0.00 0.00 0.00 0.00 0.00 0.00 0.00 0.00 0.00 0.00 0.00 0.00 0.00 0.00 0.06 0.12
0.00 0.00 0.00 0.00 0.00 0.00 0.00 0.00 0.00 0.00 0.00 0.00 0.00 0.00 0.00 0.00 0.00 0.00 0.00 0.00 0.00 0.00 0.00 0.00 0.00 0.00 0.00 0.00 0.00 0.00 0.00 0.00 0.00 0.00 0.00 0.00 0.00 0.00 0.00 0.00 0.00 0.00 0.01 0.04
0.00 0.00 0.00 0.00 0.00 0.00 0.00 0.00 0.00 0.00 0.00 0.00 0.00 0.00 0.00 0.00 0.00 0.00 0.00 0.00 0.00 0.00 0.00 0.00 0.00 0.00 0.00 0.00 0.00 0.00 0.00 0.00 0.00 0.00 0.00 0.00 0.00 0.00 0.00 0.00 0.00 0.00 0.00 0.00
0.00 0.00 0.00 0.00 0.00 0.00 0.00 0.00 0.00 0.00 0.00 0.00 0.00 0.00 0.00 0.00 0.00 0.00 0.00 0.00 0.00 0.00 0.00 0.00 0.00 0.00 0.00 0.00 0.00 0.00 0.00 0.00 0.00 0.00 0.00 0.00 0.00 0.00 0.00 0.00 0.00 0.00 0.00 0.00
0.00 0.00 0.00 0.00 0.00 0.00 0.00 0.00 0.00 0.00 0.00 0.00 0.00 0.00 0.00 0.00 0.00 0.00 0.00 0.00 0.00 0.00 0.00 0.00 0.00 0.00 0.00 0.00 0.00 0.00 0.00 0.00 0.00 0.00 0.00 0.00 0.00 0.00 0.00 0.00 0.00 0.00 0.00 0.00
0.00 0.00 0.00 0.00 0.00 0.00 0.00 0.00 0.00 0.00 0.00 0.00 0.00 0.00 0.00 0.00 0.00 0.00 0.00 0.00 0.00 0.00 0.00 0.00 0.00 0.00 0.00 0.00 0.00 0.00 0.00 0.00 0.00 0.00 0.00 0.00 0.00 0.00 0.00 0.00 0.00 0.00 0.00 0.00
0.01 0.00 0.00 0.00 0.00 0.00 0.00 0.00 0.00 0.00 0.00 0.00 0.00 0.00 0.00 0.00 0.00 0.00 0.00 0.00 0.00 0.00 0.00 0.00 0.00 0.00 0.00 0.00 0.00 0.00 0.00 0.00 0.00 0.00 0.00 0.00 0.00 0.00 0.00 0.00 0.00 0.00 0.00 0.00
0.02 0.02 0.00 0.00 0.00 0.00 0.00 0.00 0.00 0.00 0.00 0.00 0.00 0.00 0.00 0.00 0.00 0.00 0.00 0.00 0.00 0.00 0.00 0.00 0.01 0.00 0.00 0.01 0.01 0.01 0.00 0.00 0.00 0.01 0.00 0.00 0.00 0.00 0.00 0.00 0.00 0.00 0.00 0.00
0.00 0.00 0.00 0.00 0.00 0.00 0.00 0.00 0.00 0.00 0.00 0.00 0.00 0.00 0.00 0.00 0.00 0.00 0.00 0.00 0.00 0.00 0.00 0.00 0.01 0.01 0.01 0.01 0.01 0.01 0.01 0.01 0.01 0.01 0.00 0.00 0.00 0.00 0.00 0.00 0.00 0.00 0.00 0.00
0.00 0.00 0.00 0.00 0.00 0.00 0.00 0.00 0.00 0.00 0.00 0.00 0.00 0.00 0.00 0.00 0.00 0.00 0.00 0.00 0.00 0.00 0.00 0.00 0.01 0.01 0.00 0.00 0.01 0.01 0.01 0.01 0.01 0.01 0.01 0.00 0.00 0.00 0.00 0.00 0.00 0.00 0.00 0.00
0.03 0.02 0.01 0.02 0.01 0.00 0.00 0.00 0.00 0.00 0.00 0.00 0.01 0.01 0.01 0.00 0.00 0.00 0.00 0.01 0.00 0.00 0.00 0.00 0.01 0.00 0.01 0.01 0.01 0.01 0.01 0.01 0.01 0.01 0.01 0.01 0.01 0.01 0.00 0.00 0.00 0.00 0.00 0.00
0.03 0.03 0.04 0.05 0.05 0.03 0.02 0.02 0.01 0.02 0.01 0.01 0.01 0.02 0.01 0.00 0.00 0.01 0.01 0.01 0.00 0.00 0.00 0.00 0.01 0.01 0.01 0.01 0.01 0.00 0.00 0.00 0.01 0.01 0.01 0.01 0.01 0.01 0.01 0.01 0.00 0.00 0.00 0.00
0.01 0.01 0.01 0.01 0.02 0.04 0.06 0.08 0.06 0.05 0.06 0.04 0.03 0.02 0.01 0.00 0.00 0.00 0.00 0.01 0.00 0.00 0.00 0.01 0.01 0.01 0.01 0.01 0.00 0.00 0.00 0.00 0.00 0.00 0.00 0.00 0.00 0.00 0.00 0.00 0.00 0.00 0.00 0.00
0.00 0.00 0.00 0.00 0.01 0.02 0.04 0.04 0.05 0.06 0.06 0.06 0.05 0.02 0.00 0.00 0.00 0.00 0.00 0.01 0.00 0.00 0.00 0.01 0.00 0.00 0.00 0.01 0.01 0.00 0.00 0.00 0.00 0.00 0.00 0.00 0.00 0.00 0.00 0.00 0.00 0.00 0.00 0.00
0.00 0.00 0.01 0.01 0.01 0.00 0.01 0.03 0.03 0.05 0.06 0.07 0.04 0.00 0.00 0.00 0.00 0.00 0.00 0.00 0.00 0.00 0.01 0.00 0.00 0.00 0.01 0.01 0.01 0.01 0.00 0.00 0.00 0.00 0.00 0.00 0.00 0.00 0.00 0.00 0.00 0.00 0.00 0.00
0.01 0.02 0.03 0.04 0.01 0.00 0.00 0.01 0.05 0.06 0.09 0.06 0.03 0.00 0.00 0.00 0.00 0.00 0.00 0.00 0.00 0.00 0.02 0.02 0.00 0.00 0.02 0.02 0.01 0.01 0.01 0.00 0.00 0.01 0.01 0.00 0.00 0.00 0.00 0.00 0.00 0.00 0.00 0.00
0.00 0.00 0.02 0.08 0.05 0.00 0.01 0.01 0.04 0.06 0.04 0.03 0.02 0.01 0.00 0.00 0.00 0.00 0.00 0.00 0.00 0.00 0.01 0.04 0.04 0.01 0.03 0.03 0.02 0.01 0.01 0.01 0.00 0.00 0.00 0.00 0.00 0.00 0.00 0.00 0.00 0.00 0.00 0.00
0.00 0.01 0.01 0.08 0.07 0.02 0.01 0.02 0.03 0.03 0.02 0.02 0.01 0.00 0.00 0.00 0.00 0.00 0.00 0.00 0.00 0.00 0.00 0.00 0.01 0.01 0.01 0.01 0.02 0.02 0.01 0.02 0.01 0.00 0.00 0.00 0.00 0.00 0.00 0.00 0.00 0.00 0.00 0.00
MSLP
1007.63 1007.10 1005.35 1005.08 1005.38 1005.26 1004.72 1003.93 1003.60 1005.38 1007.51 1009.58 1011.25 1012.64 1014.92 1016.57 1017.37 1017.82 1018.18 1018.33 1018.64 1018.92 1019.21 1019.53 1019.64 1019.27 1018.76 1018.46 1017.76 1017.21 1016.14 1015.30 1015.54 1014.62 1015.25 1015.92 1015.88 1016.06 1016.40 1016.74 1016.99 1017.22 1017.54 1017.81
1008.50 1008.62 1008.12 1007.22 1007.05 1006.94 1005.88 1005.40 1005.40 1006.25 1008.89 1010.89 1012.42 1013.31 1014.52 1015.55 1016.60 1017.61 1018.30 1018.50 1018.86 1019.06 1019.23 1019.24 1019.23 1019.24 1019.54 1018.93 1018.52 1017.91 1017.38 1016.69 1015.89 1015.44 1015.78 1015.49 1015.62 1015.91 1016.00 1016.24 1016.54 1016.72 1016.97 1017.20
1008.13 1008.75 1009.13 1008.92 1008.22 1007.70 1007.23 1007.25 1007.07 1007.04 1009.61 1011.82 1012.96 1013.95 1014.87 1015.55 1016.77 1017.47 1017.90 1018.49 1018.67 1019.11 1019.44 1019.64 1019.49 1019.75 1019.56 1019.42 1019.11 1018.84 1018.48 1018.17 1017.38 1016.49 1015.64 1015.80 1015.73 1015.70 1015.82 1015.98 1016.00 1016.19 1016.39 1016.54
1008.60 1008.68 1009.18 1009.25 1009.70 1008.66 1008.58 1009.16 1009.91 1010.47 1011.39 1012.21 1013.70 1014.99 1015.49 1016.32 1017.25 1017.81 1018.19 1018.42 1018.59 1018.66 1019.05 1019.58 1019.60 1019.63 1019.44 1019.11 1019.32 1019.11 1019.01 1018.77 1018.48 1017.86 1016.93 1016.32 1015.64 1015.71 1015.64 1015.66 1015.71 1015.77 1015.80 1015.90
1009.62 1008.74 1009.11 1010.16 1010.65 1010.48 1010.12 1011.36 1011.79 1012.28 1013.30 1013.96 1014.78 1015.24 1016.54 1017.49 1018.06 1018.26 1018.50 1018.64 1018.86 1018.97 1019.14 1019.12 1019.01 1019.20 1019.22 1019.23 1019.37 1019.32 1019.32 1019.15 1019.02 1018.28 1017.65 1017.05 1016.46 1015.87 1015.24 1015.16 1015.15 1015.16 1015.24 1015.26
1010.60 1009.95 1009.04 1010.22 1011.20 1011.77 1011.33 1011.82 1013.29 1013.50 1014.16 1014.59 1015.01 1014.88 1016.28 1018.02 1018.49 1018.78 1019.00 1019.22 1019.38 1019.53 1019.25 1019.10 1019.17 1019.08 1019.08 1018.87 1018.97 1018.71 1018.97 1019.00 1019.02 1018.86 1018.21 1017.34 1016.72 1016.28 1015.90 1015.13 1014.42 1014.40 1014.14 1014.38
1011.26 1010.95 1010.34 1011.60 1012.63 1013.01 1012.91 1013.30 1014.13 1014.42 1015.10 1015.52 1015.23 1016.72 1017.76 1018.48 1018.98 1019.36 1019.52 1019.63 1019.91 1019.79 1019.65 1019.59 1019.54 1019.48 1019.32 1019.14 1018.89 1018.96 1019.01 1018.82 1018.66 1018.54 1018.30 1017.76 1016.84 1016.48 1016.15 1015.58 1014.81 1014.29 1013.83 1013.72
1011.96 1011.35 1011.78 1012.60 1013.42 1013.37 1013.93 1014.71 1015.26 1015.69 1016.19 1016.48 1017.01 1017.61 1018.24 1018.64 1019.04 1019.46 1019.84 1020.10 1020.32 1020.22 1020.22 1020.27 1020.15 1019.90 1019.57 1019.36 1019.32 1019.30 1019.18 1018.94 1018.64 1018.36 1018.03 1017.52 1017.05 1016.36 1015.82 1015.38 1014.89 1013.92 1013.61 1013.19
1013.00 1012.77 1013.25 1013.71 1013.82 1014.44 1014.68 1015.18 1015.69 1016.03 1016.74 1017.20 1017.47 1018.00 1018.63 1018.91 1019.26 1019.62 1019.96 1020.28 1020.50 1020.63 1020.77 1020.74 1020.60 1020.41 1020.06 1019.79 1019.76 1019.46 1019.08 1018.79 1018.44 1018.10 1017.57 1017.03 1016.70 1015.94 1015.27 1014.46 1014.06 1013.44 1013.19 1012.42
1014.08 1013.37 1013.85 1014.11 1014.61 1015.15 1015.52 1015.60 1016.22 1016.60 1017.08 1017.56 1017.76 1018.32 1018.81 1019.15 1019.57 1019.81 1020.02 1020.26 1020.54 1020.88 1020.76 1020.89 1020.91 1020.76 1020.54 1020.22 1019.99 1019.64 1019.15 1018.65 1018.06 1017.36 1016.70 1016.27 1015.64 1015.45 1014.59 1013.54 1012.55 1012.31 1012.16 1011.99
1013.86 1013.83 1014.04 1014.21 1014.55 1015.19 1015.79 1016.18 1016.61 1017.06 1017.47 1017.87 1018.28 1018.58 1019.04 1019.33 1019.74 1020.11 1020.45 1020.54 1021.01 1021.25 1021.11 1021.00 1020.91 1020.96 1020.71 1020.39 1020.18 1019.70 1019.20 1018.65 1017.86 1016.96 1016.04 1015.18 1014.35 1013.83 1013.49 1013.05 1012.44 1012.35 1011.73 1011.79
1013.58 1013.24 1013.42 1013.84 1014.10 1014.89 1015.60 1016.26 1016.75 1017.17 1017.64 1018.10 1018.46 1018.76 1019.13 1019.33 1019.82 1020.48 1020.45 1020.73 1021.16 1021.26 1021.27 1021.01 1021.10 1020.90 1020.74 1020.71 1020.58 1020.15 1019.42 1018.62 1017.76 1016.97 1015.99 1014.86 1013.87 1012.78 1012.35 1012.28 1012.31 1012.26 1012.02 1012.09
1013.14 1013.23 1013.32 1013.58 1014.25 1014.87 1015.44 1016.08 1016.63 1017.12 1017.54 1017.84 1018.23 1018.54 1018.81 1019.08 1019.66 1020.10 1019.98 1020.59 1021.09 1021.45 1021.34 1021.27 1021.13 1020.93 1020.79 1020.76 1020.72 1020.38 1019.81 1019.06 1018.38 1017.66 1016.47 1015.18 1014.18 1013.28 1011.94 1011.22 1011.20 1011.25 1011.16 1011.10
1013.26 1013.56 1013.58 1014.00 1014.42 1014.84 1015.32 1015.96 1016.76 1016.96 1017.28 1017.65 1017.95 1018.21 1018.50 1018.85 1019.06 1019.30 1019.89 1020.68 1020.96 1021.10 1021.32 1021.38 1021.20 1020.96 1020.88 1020.79 1020.53 1020.14 1019.76 1019.23 1018.39 1017.71 1016.98 1015.88 1014.62 1013.47 1012.74 1011.66 1010.83 1010.26 1010.02 1010.12
1013.58 1013.49 1013.50 1013.63 1014.32 1014.99 1015.56 1015.89 1016.32 1016.70 1017.00 1017.16 1017.43 1017.81 1018.57 1019.01 1019.28 1019.20 1019.84 1020.50 1020.95 1021.12 1021.13 1021.18 1021.08 1020.83 1020.72 1020.59 1020.34 1019.90 1019.26 1018.52 1018.02 1017.58 1016.82 1016.12 1014.98 1013.70 1012.28 1011.60 1010.75 1010.13 1009.69 1009.46
1014.12 1014.10 1013.73 1013.73 1014.03 1014.61 1015.12 1015.46 1015.81 1015.96 1016.19 1016.38 1016.76 1017.37 1018.10 1018.54 1018.97 1019.34 1019.67 1020.14 1020.53 1020.56 1020.83 1020.65 1020.62 1020.48 1020.46 1020.08 1019.48 1019.05 1018.64 1018.20 1017.65 1016.85 1016.50 1016.00 1015.13 1013.97 1012.75 1011.42 1010.59 1009.71 1009.16 1008.79
1014.28 1014.51 1014.12 1013.94 1014.00 1014.25 1014.45 1014.80 1015.06 1015.42 1015.65 1015.84 1016.26 1016.73 1017.50 1018.08 1018.41 1018.74 1019.43 1019.84 1020.02 1020.20 1020.05 1020.09 1019.94 1020.05 1019.88 1019.55 1018.97 1018.48 1017.90 1017.46 1016.98 1016.50 1015.92 1015.21 1014.45 1013.67 1012.62 1011.36 1010.17 1009.11 1008.24 1008.10
1013.24 1013.37 1013.54 1013.82 1013.82 1013.84 1013.95 1014.36 1014.86 1015.12 1015.28 1015.41 1015.78 1016.20 1017.00 1017.58 1018.08 1018.47 1019.20 1019.82 1019.95 1019.50 1019.41 1019.52 1019.74 1020.00 1019.58 1019.04 1018.55 1018.08 1017.48 1016.76 1016.14 1015.62 1015.15 1014.44 1013.76 1013.14 1012.65 1011.67 1010.70 1009.57 1008.46 1007.67
1012.86 1012.90 1013.26 1013.43 1013.25 1013.48 1013.65 1013.74 1014.21 1014.39 1014.79 1014.77 1015.34 1015.82 1016.44 1017.09 1017.48 1018.04 1018.72 1019.13 1019.36 1019.12 1019.20 1019.30 1019.79 1019.42 1019.00 1018.59 1018.09 1017.55 1016.71 1016.12 1015.45 1014.86 1014.20 1013.57 1012.99 1012.46 1011.99 1011.42 1010.59 1009.84 1009.16 1008.27
1012.82 1012.87 1012.93 1013.08 1013.28 1013.43 1013.44 1013.48 1013.05 1013.51 1014.22 1014.43 1014.72 1015.29 1016.08 1016.44 1017.11 1017.70 1018.03 1018.28 1018.60 1019.10 1019.36 1019.14 1019.34 1019.01 1018.67 1018.20 1017.88 1017.20 1016.27 1015.78 1015.24 1014.51 1013.75 1012.91 1012.21 1011.56 1011.06 1010.60 1010.10 1009.34 1008.65 1007.92
1012.28 1012.63 1012.84 1012.90 1012.97 1013.16 1013.17 1013.17 1013.27 1013.12 1013.25 1013.46 1013.91 1014.42 1015.57 1015.76 1016.23 1016.76 1017.33 1017.52 1017.98 1018.43 1018.65 1018.56 1018.73 1018.64 1018.20 1017.98 1017.94 1017.44 1016.58 1016.00 1015.33 1014.51 1013.46 1012.59 1011.92 1011.26 1010.58 1010.23 1009.41 1008.59 1007.92 1007.43
1012.52 1012.95 1013.13 1013.02 1012.90 1012.84 1013.05 1013.26 1013.30 1013.12 1013.64 1013.00 1012.78 1013.70 1015.05 1015.16 1015.78 1016.25 1016.55 1016.62 1016.76 1017.96 1017.82 1017.60 1018.08 1018.24 1018.07 1017.78 1017.48 1016.91 1016.56 1015.82 1015.06 1014.40 1013.56 1012.63 1011.86 1011.07 1010.35 1009.84 1009.17 1008.36 1007.34 1006.86
1012.43 1012.56 1012.78 1012.86 1012.96 1013.04 1013.08 1013.36 1013.40 1013.62 1013.76 1013.74 1013.12 1013.63 1013.98 1014.13 1014.81 1015.04 1015.60 1016.37 1016.23 1017.01 1017.04 1017.10 1017.65 1017.72 1017.58 1017.09 1016.63 1016.59 1016.17 1015.60 1014.77 1013.96 1013.29 1012.54 1011.70 1010.97 1010.19 1009.38 1008.67 1007.96 1007.16 1006.51
1012.96 1013.09 1013.21 1013.10 1013.53 1013.37 1013.20 1013.22 1013.35 1013.24 1013.32 1013.61 1013.37 1013.19 1013.31 1013.62 1014.22 1014.47 1014.86 1015.76 1016.16 1016.50 1016.13 1016.49 1016.74 1017.02 1016.88 1016.43 1016.24 1016.00 1015.64 1015.20 1014.74 1013.95 1013.17 1012.41 1011.58 1010.88 1010.03 1009.04 1007.88 1006.92 1006.32 1005.94
1013.31 1013.41 1013.38 1013.59 1013.68 1013.58 1013.66 1013.67 1013.55 1013.78 1013.60 1013.83 1013.41 1013.34 1013.24 1013.33 1013.78 1013.91 1014.22 1014.65 1015.50 1015.73 1014.98 1015.89 1016.28 1016.15 1015.66 1015.43 1015.35 1015.41 1015.23 1014.72 1014.41 1013.82 1013.11 1012.35 1011.58 1010.69 1009.97 1009.15 1007.78 1006.44 1005.77 1005.28
1013.36 1013.14 1013.48 1014.10 1014.34 1014.56 1014.56 1014.07 1013.74 1013.40 1013.64 1014.33 1014.58 1014.23 1013.22 1013.96 1013.58 1013.88 1014.20 1014.48 1014.22 1014.35 1014.20 1014.55 1014.80 1014.72 1014.85 1014.53 1014.74 1014.69 1014.71 1014.57 1014.22 1013.82 1013.34 1012.59 1011.84 1010.98 1010.09 1009.26 1008.43 1007.12 1005.92 1005.36
1013.32 1014.29 1013.86 1014.40 1014.82 1015.37 1015.28 1014.90 1014.54 1014.23 1014.66 1014.90 1014.42 1013.38 1013.40 1013.19 1013.74 1014.02 1014.15 1013.68 1013.38 1013.49 1013.89 1014.12 1014.16 1014.03 1013.84 1013.51 1013.46 1013.80 1013.82 1014.04 1014.05 1013.74 1013.39 1012.79 1012.18 1011.26 1010.29 1009.70 1009.08 1008.33 1007.45 1006.72
Thickness
5666 5678 5703 5706 5703 5708 5713 5735 5740 5716 5705 5706 5708 5709 5696 5690 5690 5693 5696 5701 5703 5706 5705 5704 5705 5710 5717 5726 5738 5746 5756 5767 5766 5782 5782 5779 5783 5785 5786 5787 5788 5790 5790 5791
5646 5658 5665 5672 5682 5688 5703 5715 5724 5715 5685 5696 5698 5700 5696 5695 5692 5686 5686 5691 5693 5696 5699 5703 5706 5711 5707 5716 5726 5733 5740 5749 5760 5767 5768 5776 5779 5780 5783 5785 5787 5788 5789 5792
5645 5654 5646 5639 5663 5677 5689 5699 5705 5700 5683 5686 5683 5682 5682 5685 5681 5680 5682 5682 5685 5686 5688 5690 5696 5697 5701 5705 5713 5719 5723 5729 5740 5751 5762 5765 5769 5773 5777 5779 5784 5785 5787 5790
5647 5651 5619 5646 5660 5677 5674 5673 5675 5672 5669 5676 5671 5668 5670 5672 5667 5668 5671 5674 5678 5684 5683 5682 5687 5691 5696 5702 5703 5707 5709 5714 5723 5732 5742 5753 5763 5766 5771 5776 5779 5783 5786 5789
5627 5643 5650 5638 5639 5642 5645 5636 5654 5651 5650 5652 5655 5656 5647 5649 5652 5656 5660 5665 5668 5673 5675 5680 5685 5687 5690 5692 5694 5698 5701 5705 5710 5721 5730 5739 5745 5756 5768 5772 5776 5780 5785 5788
5623 5617 5630 5630 5638 5642 5649 5626 5636 5639 5638 5641 5645 5641 5632 5638 5640 5643 5647 5650 5653 5656 5663 5669 5674 5678 5681 5686 5687 5694 5694 5699 5703 5708 5717 5729 5738 5744 5752 5763 5773 5778 5784 5789
5614 5612 5630 5623 5623 5627 5608 5615 5624 5627 5625 5626 5629 5619 5623 5625 5625 5627 5631 5635 5638 5643 5647 5652 5658 5663 5666 5672 5678 5683 5687 5691 5697 5701 5706 5715 5727 5735 5743 5749 5758 5766 5775 5783
5605 5608 5596 5615 5611 5607 5610 5610 5607 5609 5608 5609 5609 5608 5608 5609 5613 5615 5615 5618 5621 5625 5629 5634 5639 5645 5652 5657 5663 5669 5674 5679 5685 5691 5697 5705 5713 5724 5733 5738 5743 5752 5762 5773
5593 5592 5602 5602 5603 5604 5605 5600 5598 5598 5597 5596 5597 5597 5595 5594 5598 5601 5602 5604 5607 5610 5612 5616 5621 5627 5633 5640 5646 5653 5661 5668 5674 5680 5689 5696 5702 5715 5724 5735 5739 5746 5755 5768
5576 5591 5588 5590 5591 5590 5590 5592 5589 5589 5587 5585 5586 5585 5584 5583 5583 5586 5589 5591 5594 5594 5598 5600 5604 5608 5614 5622 5628 5635 5645 5654 5663 5673 5681 5690 5699 5706 5716 5732 5745 5749 5754 5759
5574 5581 5581 5584 5584 5581 5578 5579 5577 5577 5575 5573 5572 5572 5571 5571 5570 5571 5571 5575 5575 5575 5579 5583 5588 5591 5597 5603 5609 5619 5628 5638 5649 5662 5673 5685 5696 5704 5713 5722 5734 5740 5751 5753
5564 5582 5580 5577 5583 5579 5572 5568 5568 5566 5564 5564 5564 5562 5562 5562 5560 5555 5559 5560 5559 5561 5563 5568 5569 5573 5578 5583 5589 5596 5607 5620 5632 5644 5657 5671 5683 5699 5707 5714 5717 5724 5732 5737
5573 5577 5577 5577 5575 5571 5567 5564 5562 5559 5558 5557 5557 5557 5558 5556 5552 5549 5552 5548 5545 5544 5548 5550 5552 5555 5558 5562 5567 5576 5586 5596 5607 5618 5632 5648 5661 5674 5691 5707 5710 5715 5723 5729
5569 5565 5562 5562 5558 5561 5559 5556 5550 5552 5552 5550 5550 5551 5550 5548 5548 5546 5542 5535 5534 5533 5532 5533 5536 5538 5541 5545 5550 5557 5564 5574 5586 5596 5607 5622 5637 5652 5665 5681 5693 5706 5716 5720
5554 5557 5556 5556 5553 5548 5546 5546 5543 5541 5541 5542 5542 5540 5535 5532 5532 5535 5530 5524 5519 5517 5516 5516 5518 5521 5524 5527 5532 5538 5548 5559 5568 5576 5587 5599 5614 5630 5648 5661 5676 5689 5702 5710
5538 5538 5545 5545 5544 5542 5539 5538 5535 5536 5536 5537 5535 5530 5525 5524 5521 5519 5517 5513 5509 5507 5503 5503 5502 5504 5505 5510 5519 5526 5533 5541 5549 5561 5568 5577 5589 5605 5621 5638 5652 5669 5682 5696
5525 5522 5530 5533 5535 5534 5534 5533 5533 5529 5529 5528 5525 5523 5517 5512 5511 5509 5503 5500 5499 5495 5494 5492 5490 5487 5488 5492 5500 5508 5517 5527 5535 5543 5552 5562 5573 5584 5599 5616 5633 5649 5667 5680
5536 5536 5533 5530 5530 5530 5530 5528 5524 5521 5521 5521 5519 5515 5507 5503 5499 5497 5491 5485 5483 5486 5483 5479 5475 5470 5471 5475 5481 5488 5497 5508 5520 5530 5537 5547 5558 5568 5577 5590 5605 5621 5638 5656
5533 5532 5529 5527 5529 5525 5524 5523 5519 5518 5513 5515 5509 5504 5500 5495 5492 5487 5481 5477 5473 5474 5469 5466 5457 5458 5460 5462 5466 5471 5481 5490 5503 5514 5525 5533 5542 5552 5561 5570 5583 5595 5607 5622
5527 5525 5523 5521 5519 5516 5515 5516 5522 5515 5509 5507 5504 5497 5489 5486 5481 5476 5474 5471 5467 5460 5453 5452 5447 5447 5446 5449 5450 5456 5466 5473 5483 5494 5505 5518 5529 5539 5548 5555 5564 5575 5585 5599
5524 5519 5516 5514 5512 5509 5508 5508 5507 5507 5505 5503 5498 5494 5482 5481 5478 5473 5467 5464 5460 5453 5447 5443 5438 5436 5437 5436 5435 5438 5446 5453 5463 5474 5488 5501 5511 5522 5531 5536 5547 5557 5567 5573
5514 5507 5503 5502 5500 5499 5497 5493 5492 5494 5490 5499 5494 5489 5475 5473 5469 5466 5465 5463 5459 5445 5442 5439 5431 5427 5425 5425 5426 5431 5432 5439 5449 5458 5468 5481 5493 5504 5514 5519 5526 5535 5543 5546
5507 5502 5496 5491 5486 5483 5481 5477 5477 5476 5476 5478 5483 5478 5473 5472 5468 5465 5460 5455 5453 5443 5439 5433 5424 5420 5417 5420 5422 5420 5422 5427 5437 5446 5454 5463 5476 5486 5496 5504 5509 5514 5521 5525
5491 5485 5478 5474 5465 5463 5462 5460 5459 5463 5465 5462 5461 5469 5467 5464 5462 5462 5459 5450 5443 5436 5437 5429 5423 5415 5413 5415 5415 5414 5416 5419 5424 5433 5442 5452 5463 5471 5478 5487 5496 5502 5507 5510
5476 5469 5464 5456 5449 5447 5443 5438 5439 5438 5448 5449 5453 5452 5457 5460 5458 5458 5455 5451 5441 5435 5436 5423 5417 5413 5415 5415 5414 5411 5411 5415 5419 5426 5434 5443 5450 5457 5462 5467 5476 5485 5491 5497
5465 5462 5453 5440 5432 5427 5422 5421 5422 5428 5436 5432 5432 5438 5451 5448 5452 5450 5447 5443 5444 5440 5436 5427 5422 5419 5415 5415 5411 5409 5407 5409 5413 5418 5423 5430 5436 5441 5446 5449 5451 5460 5470 5476
5460 5442 5443 5433 5425 5417 5413 5414 5417 5423 5423 5425 5432 5445 5444 5448 5444 5441 5440 5443 5443 5438 5431 5425 5422 5419 5418 5417 5415 5411 5409 5407 5407 5410 5414 5419 5423 5426 5428 5424 5420 5428 5438 5447